Location: ??????
(33.3472°N, 35.4764°E)
Time: 18:14:53
(UTC+00:00)

Cosmos 371 Rocket - Pass Details

Date: 21 August 2019
Orbit: 685 x 698 km, 74.0° (Epoch: 16 October)

Event Time Altitude Azimuth Distance (km) Brightness Sun altitude
Exits shadow 01:56:59 21° 258° (WSW) 1,552 4.5 -14.0°
Maximum altitude 01:58:54 27° 293° (WNW) 1,337 4.4 -13.7°
Drops below altitude 10° 02:03:00 10° 351° (N) 2,158 6.0 -12.9°
Sets 02:05:39 0° 4° (N) 3,077 7.0 -12.4°
